Location: Unspecified
(0.0000°N, 0.0000°E)
Time: 16:37:59
(UTC+00:00)

AO-85 - Pass Details

Date: 02 December 2021
Orbit: 521 x 762 km, 64.8° (Epoch: 12 March)

Event Time Altitude Azimuth Distance (km) Brightness Sun altitude
Exits shadow 03:44:49 41° 74° (ENE) 901 ? -28.7°
Drops below altitude 10° 03:48:45 10° 138° (SE) 1,925 ? -27.8°
Sets 03:51:00 0° 145° (SE) 2,790 ? -27.3°
